{"data":{"norad_id":48390,"intl_designator":"2021-038AP","name":"STARLINK-2586","alt_names":[],"object_type":"PAYLOAD","status":"ACTIVE","operator":null,"country":"US","launch_date":"2021-05-04","launch_site_code":"AFETR","launch_vehicle":null,"mission":null,"orbit_class":"UNKNOWN","rcs_meters":null,"size_class":null,"mass_kg":null,"dimensions":null,"purposes":["comms"],"wikipedia_slug":null,"has_3d_model":false,"image_url":null,"decayed_at":null,"tle_current":{"epoch":"2026-09-19T10:11:39.199200Z","epoch_age_seconds":126664,"freshness":"FRESH","line1":"1 48390U 21038AP  26262.42475925 -.00000533  00000+0 -54077-5 0  9994","line2":"2 48390  53.1600 151.0518 0001113  79.7142 280.3984 15.31705135298349","mean_motion":15.31705135,"eccentricity":0.0001113,"inclination_deg":53.16,"raan_deg":151.0518,"arg_perigee_deg":79.7142,"mean_anomaly_deg":280.3984,"bstar":-5.4077e-6,"rev_number":29834,"period_min":94.012872784421,"perigee_km":469.96240979473,"apogee_km":471.4869664065,"semimajor_km":6848.8616881006,"source":"CELESTRAK","updated_at":"2026-09-20T09:00:38.945453Z"}}}